[[{"header":{"parameterUnit":"m.s-1","parameterCategory":1,"la1":30.2991,"la2":30.254,"lo1":-89.0895,"lo2":-89.0444,"dy":0.0017,"dx":0.0017,"nx":28,"ny":28,"refTime":"2024-06-25T03:00:00:Z","depth":0,"parameterNumber":2,"parameterNumberName":"U-component_of_WINDS"},"data":[0,0,0,0,0,0,0,0,0,0,0,0,0,0,0,0,0,0,0,0,0,0,0,0,0,0,0,0,0,0,0,0,0,0,0,0,0,0,0,0,0,0,0,0,0,0,0,0,0,0,0,0,0,0,0,0,0,0,1.6793,1.6795,0,1.6979,1.6982,1.6984,1.7026,1.7024,1.7023,1.7022,1.7217,1.7224,1.723,0,0,0,0,0,0,0,0,0,0,0,0,0,1.6478,1.6484,1.6793,1.6796,1.6798,1.6979,1.6982,1.6984,1.7026,1.7024,1.7023,1.7021,1.7215,1.7223,1.7231,0,0,0,0,0,0,0,0,0,0,0,0,0,1.6635,1.6486,1.6793,1.684,1.6847,1.6979,1.6982,1.6985,1.7026,1.7024,1.7022,1.702,1.7213,1.7222,1.7232,1.7331,0,0,1.7261,1.7265,0,0,0,0,0,0,0,0,1.6626,1.6646,1.6831,1.6837,1.6844,1.6977,1.6942,1.7101,1.7027,1.6958,1.7022,1.702,1.7139,1.7155,1.7194,1.734,1.7348,1.7262,1.7268,1.7272,1.7275,0,0,0,0,0,0,0,1.6615,1.6639,1.6867,1.6834,1.6842,1.6854,1.6874,1.6973,1.7058,1.6964,1.6967,1.6989,1.7143,1.7185,1.7199,1.7351,1.7262,1.727,1.7276,1.728,1.7588,1.759,0,0,0,0,0,0,1.6595,1.6629,1.6861,1.6873,1.6728,1.6861,1.6884,1.6937,1.7057,1.7073,1.699,1.699,1.7169,1.7188,1.7206,1.733,1.7272,1.7281,1.7286,1.7586,1.7588,1.7591,0,0,0,0,0,0,1.6588,1.6615,1.6854,1.6752,1.6783,1.6869,1.6928,1.6941,1.6984,1.7077,1.7092,1.7017,1.7169,1.7193,1.7299,1.7337,1.7285,1.7294,1.7583,1.7586,1.759,1.7578,0,0,0,0,0,0,1.6579,1.6613,1.665,1.6752,1.6788,1.6942,1.693,1.6946,1.7,1.7001,1.7106,1.7122,1.7169,1.7285,1.7309,1.735,1.7302,1.758,1.7584,1.7589,1.7576,1.7581,1.7586,0,0,0,0,0,1.6568,1.6641,1.6652,1.668,1.6837,1.6944,1.6965,1.7016,1.7002,1.7042,1.7101,1.7119,1.7329,1.7295,1.7323,1.7367,1.7577,1.7583,1.7588,1.7574,1.758,1.7586,0,0,0,0,0,0,1.6542,1.6655,1.6669,1.6777,1.685,1.6951,1.7002,1.7021,1.7102,1.71,1.7162,1.7185,1.7288,1.7339,1.7298,1.747,1.7453,1.7464,1.7433,1.744,1.7444,1.743,1.731,0,0,0,0,0,1.6549,1.6625,1.672,1.6807,1.6843,1.6916,1.6964,1.6997,1.7077,1.7109,1.7176,1.7254,1.7338,1.7392,1.7474,1.7583,1.7607,1.7628,1.7633,1.7636,1.7645,1.7707,1.7717,1.7609,1.7609,1.7608,0,0,1.6564,1.6635,1.668,1.6803,1.6864,1.6943,1.6942,1.7025,1.7085,1.7122,1.7226,1.7278,1.7369,1.7477,1.7528,1.7523,1.7681,1.7643,1.7645,1.7653,1.7713,1.7724,1.7733,1.7612,1.7612,1.7611,0,0,1.6632,1.6693,1.6772,1.6832,1.6924,1.6972,1.6991,1.7089,1.7124,1.7229,1.7259,1.7331,1.7474,1.7537,1.7588,1.768,1.7699,1.7705,1.7731,1.7791,1.7799,1.7807,1.7839,1.785,1.7714,1.7714,1.7714,0,1.664,1.6758,1.681,1.6892,1.6945,1.6981,1.7061,1.7118,1.7233,1.727,1.7261,1.7441,1.7505,1.7628,1.765,1.7691,1.7714,1.7693,1.7793,1.7802,1.781,1.7842,1.7854,1.7714,1.7714,1.7714,1.7714,0,1.6763,1.6845,1.6897,1.7005,1.7065,1.7145,1.721,1.7265,1.7293,1.7342,1.7449,1.7526,1.7625,1.7657,1.7686,1.7785,1.7778,1.7781,1.7765,1.782,1.785,1.7863,1.7714,1.7714,1.7714,1.7714,0,0,1.682,1.6954,1.6973,1.7022,1.7126,1.7191,1.7274,1.7368,1.7413,1.7492,1.7563,1.7683,1.7686,1.7743,1.778,1.7832,1.7899,1.7829,1.7832,1.7839,1.8012,1.8009,1.8022,1.7912,1.7915,1.7917,1.8005,0,1.69,1.7047,1.7096,1.7219,1.7295,1.733,1.7402,1.7474,1.7523,1.7596,1.765,1.7733,1.7731,1.7766,1.782,1.7879,1.7935,1.7874,1.798,1.7983,1.7955,1.8038,1.8035,1.8114,1.8017,1.8019,1.8021,0,1.7012,1.709,1.722,1.7314,1.7348,1.7411,1.7502,1.7571,1.7654,1.7685,1.7749,1.7782,1.7871,1.785,1.7974,1.7931,1.7978,1.8014,1.8018,1.803,1.8004,1.8052,1.8141,1.8152,1.804,1.8039,1.8037,0,1.704,1.7177,1.7273,1.7314,1.7426,1.747,1.7519,1.76,1.7653,1.7733,1.7769,1.7858,1.7907,1.7976,1.8032,1.8012,1.8151,1.8135,1.818,1.8179,1.8208,1.8205,1.8305,1.8238,1.8238,1.8238,1.8238,0,1.7124,1.7202,1.7286,1.7345,1.7434,1.749,1.7577,1.7628,1.7699,1.7769,1.7806,1.7871,1.7941,1.8016,1.8061,1.8156,1.8179,1.8207,1.8218,1.8204,1.82,1.8234,1.823,1.8241,1.8241,1.824,1.8239,0,1.7169,1.7229,1.7335,1.7432,1.7458,1.7519,1.7603,1.7662,1.7712,1.78,1.7824,1.7902,1.7992,1.8055,1.8171,1.8201,1.8304,1.8314,1.8275,1.828,1.8321,1.8316,1.8447,1.8467,1.8387,1.8388,1.8388,0,1.7218,1.7279,1.7382,1.743,1.7479,1.7557,1.7612,1.767,1.7726,1.7824,1.7871,1.7963,1.804,1.8182,1.825,1.8339,1.8352,1.8391,1.8365,1.8349,1.8352,1.8347,1.8353,1.8395,1.8396,1.8396,1.8396,0,1.7299,1.7325,1.7402,1.7489,1.7552,1.7624,1.7696,1.7734,1.7806,1.7866,1.7957,1.8017,1.8134,1.8225,1.832,1.8372,1.8397,1.8404,1.8419,1.8405,1.8379,1.8393,1.8285,1.8401,1.84,1.84,1.84,1.84,1.7347,1.7402,1.7483,1.7567,1.7628,1.7694,1.7754,1.781,1.7887,1.7986,1.8016,1.8111,1.8193,1.8323,1.8377,1.8452,1.845,1.8472,1.8477,1.8482,1.8481,1.8367,1.847,1.847,1.847,1.847,1.847,0,1.7429,1.7483,1.7559,1.7658,1.7725,1.774,1.7821,1.7876,1.7958,1.8032,1.8106,1.8211,1.8299,1.8374,1.8466,1.8512,1.8525,1.8534,1.8531,1.8542,1.8478,1.8456,1.8522,1.8522,1.8521,1.8521,1.8521,1.8521,1.7479,1.7573,1.7609,1.7734,1.7788,1.788,1.7924,1.7986,1.8045,1.816,1.8233,1.8281,1.8355,1.8453,1.8535,1.8555,1.8586,1.8592,1.8615,1.8553,1.8547,1.8541,1.852,1.8599,1.8599,1.8673,1.8673,1.8674]},{"header":{"parameterUnit":"m.s-1","parameterCategory":1,"la1":30.2991,"la2":30.254,"lo1":-89.0895,"lo2":-89.0444,"dy":0.0017,"dx":0.0017,"nx":28,"ny":28,"refTime":"2024-06-25T03:00:00:Z","depth":0,"parameterNumber":3,"parameterNumberName":"V-component_of_WINDS"},"data":[0,0,0,0,0,0,0,0,0,0,0,0,0,0,0,0,0,0,0,0,0,0,0,0,0,0,0,0,0,0,0,0,0,0,0,0,0,0,0,0,0,0,0,0,0,0,0,0,0,0,0,0,0,0,0,0,0,0,3.5004,3.5005,0,3.5039,3.5039,3.504,3.5059,3.5059,3.5059,3.5059,3.5091,3.5092,3.5093,0,0,0,0,0,0,0,0,0,0,0,0,0,3.4949,3.495,3.5004,3.5005,3.5005,3.5039,3.504,3.504,3.5059,3.5059,3.5059,3.5059,3.5091,3.5092,3.5093,0,0,0,0,0,0,0,0,0,0,0,0,0,3.4977,3.495,3.5004,3.5019,3.5021,3.5039,3.504,3.504,3.5059,3.5059,3.5059,3.5059,3.5091,3.5092,3.5093,3.5099,0,0,3.5097,3.5097,0,0,0,0,0,0,0,0,3.4976,3.4979,3.5016,3.5018,3.502,3.5045,3.5032,3.506,3.5059,3.5044,3.5059,3.5059,3.5076,3.5078,3.5084,3.51,3.5102,3.5097,3.5098,3.5098,3.5099,0,0,0,0,0,0,0,3.4974,3.4978,3.5018,3.5017,3.5019,3.5022,3.5026,3.5037,3.5059,3.5046,3.5047,3.5051,3.5077,3.5083,3.5085,3.5102,3.5097,3.5098,3.5099,3.5099,3.5121,3.5121,0,0,0,0,0,0,3.497,3.4976,3.5017,3.5019,3.4998,3.5023,3.5027,3.5037,3.5059,3.5062,3.5051,3.5052,3.5081,3.5084,3.5086,3.5093,3.5098,3.5099,3.51,3.5121,3.5121,3.5121,0,0,0,0,0,0,3.4969,3.4974,3.5016,3.4998,3.5004,3.5024,3.5034,3.5037,3.5044,3.5063,3.5066,3.5054,3.5081,3.5085,3.5095,3.5094,3.51,3.5101,3.5121,3.5121,3.5121,3.5106,0,0,0,0,0,0,3.4967,3.4973,3.4977,3.4998,3.5005,3.5025,3.5034,3.5038,3.5046,3.5048,3.5067,3.507,3.5082,3.5093,3.5096,3.5096,3.5102,3.5122,3.5121,3.5121,3.5107,3.5106,3.5104,0,0,0,0,0,3.4965,3.4971,3.4977,3.4982,3.501,3.5025,3.5029,3.5043,3.5046,3.5049,3.5061,3.5069,3.5094,3.5094,3.5098,3.5098,3.5122,3.5121,3.5121,3.5107,3.5106,3.5104,0,0,0,0,0,0,3.4949,3.4975,3.4981,3.4995,3.5008,3.5029,3.5033,3.5041,3.5053,3.5054,3.5069,3.5073,3.5082,3.5091,3.5091,3.5103,3.5108,3.5109,3.5097,3.5095,3.5094,3.5092,3.5103,0,0,0,0,0,3.4947,3.4959,3.498,3.499,3.4996,3.5013,3.502,3.503,3.5044,3.5049,3.5062,3.5073,3.5083,3.509,3.51,3.5108,3.5111,3.5109,3.5108,3.5107,3.5107,3.5109,3.5108,3.512,3.512,3.512,0,0,3.4944,3.4959,3.4965,3.4987,3.4998,3.5008,3.5018,3.5028,3.5035,3.505,3.5061,3.507,3.5084,3.5092,3.5097,3.51,3.5104,3.5107,3.5105,3.5106,3.5109,3.5108,3.5107,3.512,3.512,3.512,0,0,3.4942,3.4955,3.4964,3.4974,3.4991,3.5002,3.5004,3.5023,3.503,3.504,3.5051,3.5058,3.5076,3.5085,3.5092,3.5089,3.5097,3.5092,3.5086,3.5088,3.5087,3.5086,3.5083,3.5083,3.5092,3.5092,3.5092,0,3.4935,3.4952,3.4967,3.4976,3.4984,3.4998,3.5005,3.5015,3.5033,3.5038,3.5041,3.5062,3.5073,3.5082,3.5081,3.5087,3.5088,3.509,3.5086,3.5085,3.5085,3.5082,3.5082,3.5091,3.5092,3.5092,3.5092,0,3.4941,3.4952,3.4956,3.4974,3.4983,3.4991,3.5006,3.5012,3.502,3.5029,3.5038,3.5051,3.5063,3.5066,3.5074,3.5076,3.5077,3.5083,3.5089,3.5082,3.5081,3.508,3.509,3.5091,3.5091,3.5091,0,0,3.4932,3.4956,3.4958,3.4965,3.4983,3.4991,3.4998,3.501,3.5015,3.5026,3.5031,3.5045,3.5049,3.5057,3.5066,3.5067,3.5062,3.5073,3.5073,3.5069,3.5062,3.5058,3.5057,3.5067,3.5067,3.5067,3.5061,0,3.4932,3.4948,3.496,3.497,3.4979,3.499,3.4996,3.5007,3.5015,3.5023,3.5032,3.504,3.5047,3.5051,3.5053,3.5062,3.5061,3.5063,3.5071,3.5071,3.5067,3.5056,3.5052,3.5045,3.506,3.506,3.506,0,3.4935,3.4946,3.4957,3.4971,3.4975,3.4981,3.4991,3.4999,3.501,3.5015,3.5022,3.5031,3.5037,3.5042,3.5049,3.505,3.5054,3.5058,3.5058,3.506,3.5065,3.5056,3.5044,3.5043,3.506,3.506,3.506,0,3.4925,3.4943,3.4951,3.4957,3.4974,3.4977,3.4984,3.4995,3.5001,3.501,3.5013,3.5022,3.5027,3.5033,3.5043,3.5046,3.5048,3.5055,3.5052,3.5051,3.5052,3.5052,3.504,3.5055,3.5055,3.5055,3.5055,0,3.4924,3.493,3.4946,3.4952,3.4957,3.497,3.4975,3.4983,3.4992,3.4997,3.5007,3.5012,3.5025,3.503,3.5038,3.5041,3.5044,3.5047,3.5049,3.5046,3.5045,3.5048,3.5049,3.5055,3.5055,3.5055,3.5055,0,3.4915,3.4927,3.4936,3.4951,3.4954,3.4958,3.497,3.4974,3.4982,3.4988,3.499,3.5003,3.5009,3.5019,3.5029,3.5034,3.5036,3.5039,3.5032,3.5033,3.503,3.5029,3.5019,3.5017,3.5034,3.5034,3.5034,0,3.4913,3.4918,3.4932,3.4937,3.4943,3.4951,3.4956,3.4967,3.4972,3.4983,3.4985,3.4993,3.4999,3.5008,3.5017,3.5024,3.5027,3.5023,3.5028,3.5024,3.5026,3.5025,3.5025,3.5022,3.5021,3.5021,3.5021,0,3.4908,3.4913,3.4921,3.493,3.4936,3.4943,3.4951,3.4954,3.4966,3.4971,3.4978,3.4982,3.4991,3.4998,3.5005,3.5011,3.5017,3.5019,3.5019,3.5015,3.5011,3.5012,3.5028,3.5019,3.502,3.502,3.502,3.502,3.4902,3.4905,3.4916,3.4923,3.493,3.4936,3.494,3.4948,3.4954,3.4963,3.4968,3.4974,3.4982,3.4993,3.4998,3.5001,3.5004,3.5004,3.5004,3.5003,3.5001,3.501,3.5003,3.5003,3.5003,3.5003,3.5003,0,3.4896,3.4903,3.4909,3.492,3.4925,3.493,3.4938,3.4942,3.4947,3.4954,3.496,3.4966,3.4971,3.498,3.4986,3.4987,3.499,3.4988,3.4987,3.4988,3.4999,3.4998,3.4985,3.4985,3.4985,3.4985,3.4985,3.4985,3.4894,3.49,3.4905,3.4913,3.4919,3.4925,3.4929,3.4934,3.4939,3.4946,3.495,3.4956,3.4963,3.4969,3.4973,3.4975,3.4976,3.4973,3.4976,3.4986,3.4988,3.4989,3.4989,3.4974,3.4974,3.4965,3.4965,3.4965]}]]